レナード彗星

C/2020 X4 ( Leonard )

English version
Home page
Updated on September 18, 2021

---------------------------------------------------------------------

・ プロフィール

発見日 2020年12月14日
発見光度 20.0等
発見者 Gregory J. Leonard (Mount Lemmon Survey)

・ 軌道要素

Epoch 2020 Nov. 7.0 TT = JDT 2459160.5
T 2020 Nov. 14.28788 TT                                 Rudenko
q   5.2057495            (2000.0)            P               Q
z  +0.0232093      Peri.  139.88981     +0.69392962     +0.65166370
 +/-0.0000000      Node   161.90867     -0.56351545     +0.22672914
e   0.8791783      Incl.   80.48627     +0.44823211     -0.72382893
From 100 observations 2020 Dec. 14-2021 Aug. 8, mean residual 0".6.

・ 光度変化

        m1 = 9.0 + 5 logΔ + 10.0 log r

---------------------------------------------------------------------

軌道要素はM.P.E.C. 2021-R75に掲載されたものです。
光度グラフはComet for Windowsで作成したものです。

---------------------------------------------------------------------

Copyright(C) Seiichi Yoshida (comet@aerith.net). All rights reserved.